When you browse on this site, cookies collect data to enhance your experience and personalize the content and advertising you see.
Visit our Privacy Policy to learn more. By continuing to use the site, you agree to this use of cookies and data.
  • en France
  • Liste des pays
  • À 7 jours
  • Température de l'eau
  • Carte satellitaire
  • Carte météo
  • Widgets météo
  • user-avatar
    Se connecter

    Météo par heure à Yulara

    Ce jour, 18 Décembre, Mardi

    Heure Température Précipitation Vent Pression Humidité
    00:00 +38°C° 0.1 mm 3 m/s 711 mmHg 19%
    01:00 +38°C° 0.1 mm 3 m/s 711 mmHg 19%
    02:00 +37°C° 0.1 mm 3 m/s 711 mmHg 19%
    03:00 +37°C° 0 mm 4 m/s 711 mmHg 19%
    04:00 +36°C° 0 mm 4 m/s 711 mmHg 18%
    05:00 +35°C° 0 mm 4 m/s 712 mmHg 17%
    06:00 +35°C° 0 mm 5 m/s 712 mmHg 16%
    07:00 +36°C° 0 mm 4 m/s 712 mmHg 15%
    08:00 +38°C° 0 mm 4 m/s 713 mmHg 14%
    09:00 +39°C° 0 mm 3 m/s 713 mmHg 12%
    10:00 +42°C° 0 mm 4 m/s 713 mmHg 11%
    11:00 +43°C° 0 mm 5 m/s 713 mmHg 10%
    12:00 +45°C° 0 mm 6 m/s 712 mmHg 10%
    13:00 +46°C° 0 mm 6 m/s 712 mmHg 10%
    14:00 +46°C° 0 mm 7 m/s 712 mmHg 9%
    15:00 +46°C° 0 mm 7 m/s 712 mmHg 10%
    16:00 +45°C° 0 mm 7 m/s 712 mmHg 10%
    17:00 +45°C° 0 mm 7 m/s 712 mmHg 10%
    18:00 +44°C° 0 mm 7 m/s 712 mmHg 10%
    19:00 +43°C° 0 mm 7 m/s 713 mmHg 11%
    20:00 +40°C° 0 mm 6 m/s 713 mmHg 12%
    21:00 +39°C° 0 mm 6 m/s 713 mmHg 12%
    22:00 +36°C° 0 mm 7 m/s 714 mmHg 14%
    23:00 +35°C° 0 mm 7 m/s 714 mmHg 16%

    Demain, 19 Décembre, Mercredi

    Heure Température Précipitation Vent Pression Humidité
    00:00 +34°C° 0 mm 8 m/s 714 mmHg 18%
    01:00 +33°C° 0 mm 8 m/s 714 mmHg 22%
    02:00 +32°C° 0 mm 9 m/s 714 mmHg 25%
    03:00 +29°C° 0 mm 9 m/s 714 mmHg 28%
    04:00 +29°C° 0 mm 8 m/s 714 mmHg 32%
    05:00 +28°C° 0 mm 8 m/s 715 mmHg 37%
    06:00 +27°C° 0 mm 7 m/s 715 mmHg 41%
    07:00 +28°C° 0 mm 7 m/s 715 mmHg 38%
    08:00 +30°C° 0 mm 7 m/s 716 mmHg 35%
    09:00 +32°C° 0 mm 6 m/s 716 mmHg 32%
    10:00 +34°C° 0 mm 6 m/s 716 mmHg 28%
    11:00 +35°C° 0 mm 5 m/s 716 mmHg 24%
    12:00 +37°C° 0 mm 4 m/s 716 mmHg 20%
    13:00 +38°C° 0 mm 4 m/s 715 mmHg 18%
    14:00 +40°C° 0 mm 4 m/s 715 mmHg 16%
    15:00 +41°C° 0 mm 4 m/s 714 mmHg 14%
    16:00 +41°C° 0 mm 4 m/s 714 mmHg 14%
    17:00 +40°C° 0 mm 3 m/s 714 mmHg 14%
    18:00 +40°C° 0 mm 3 m/s 714 mmHg 14%
    19:00 +38°C° 0 mm 4 m/s 715 mmHg 15%
    20:00 +37°C° 0 mm 5 m/s 715 mmHg 17%
    21:00 +36°C° 0 mm 6 m/s 715 mmHg 18%
    22:00 +35°C° 0 mm 7 m/s 715 mmHg 21%
    23:00 +33°C° 0 mm 8 m/s 716 mmHg 23%

    Après-demain, 20 Décembre, Jeudi

    Heure Température Précipitation Vent Pression Humidité
    00:00 +32°C° 0 mm 9 m/s 716 mmHg 26%
    01:00 +31°C° 0 mm 9 m/s 715 mmHg 32%
    02:00 +28°C° 0 mm 9 m/s 715 mmHg 38%
    03:00 +27°C° 0 mm 9 m/s 715 mmHg 44%
    04:00 +26°C° 0 mm 8 m/s 716 mmHg 48%
    05:00 +24°C° 0 mm 8 m/s 716 mmHg 52%
    06:00 +24°C° 0 mm 7 m/s 717 mmHg 56%
    07:00 +26°C° 0 mm 7 m/s 717 mmHg 50%
    08:00 +28°C° 0 mm 7 m/s 717 mmHg 44%
    09:00 +30°C° 0 mm 7 m/s 718 mmHg 38%
    10:00 +32°C° 0 mm 6 m/s 718 mmHg 34%
    11:00 +34°C° 0 mm 5 m/s 717 mmHg 29%
    12:00 +36°C° 0 mm 4 m/s 717 mmHg 25%
    13:00 +36°C° 0 mm 3 m/s 716 mmHg 23%
    14:00 +37°C° 0 mm 3 m/s 716 mmHg 21%
    15:00 +38°C° 0 mm 2 m/s 715 mmHg 19%
    16:00 +38°C° 0 mm 3 m/s 715 mmHg 18%
    17:00 +38°C° 0 mm 3 m/s 715 mmHg 18%
    18:00 +38°C° 0 mm 4 m/s 715 mmHg 18%
    19:00 +38°C° 0 mm 6 m/s 715 mmHg 20%
    20:00 +35°C° 0 mm 8 m/s 715 mmHg 23%
    21:00 +33°C° 0 mm 10 m/s 716 mmHg 25%
    22:00 +32°C° 0 mm 9 m/s 716 mmHg 28%
    23:00 +31°C° 0 mm 9 m/s 716 mmHg 30%

    21 Décembre, Vendredi

    Heure Température Précipitation Vent Pression Humidité
    00:00 +29°C° 0 mm 9 m/s 716 mmHg 33%
    01:00 +28°C° 0 mm 9 m/s 716 mmHg 38%
    02:00 +27°C° 0 mm 9 m/s 716 mmHg 44%
    03:00 +26°C° 0 mm 8 m/s 716 mmHg 50%
    04:00 +24°C° 0 mm 8 m/s 716 mmHg 53%
    05:00 +23°C° 0 mm 8 m/s 717 mmHg 55%
    06:00 +23°C° 0 mm 8 m/s 717 mmHg 58%
    07:00 +24°C° 0 mm 8 m/s 717 mmHg 51%
    08:00 +27°C° 0 mm 8 m/s 718 mmHg 45%
    09:00 +28°C° 0 mm 8 m/s 718 mmHg 39%
    10:00 +30°C° 0 mm 7 m/s 718 mmHg 34%
    11:00 +33°C° 0 mm 7 m/s 718 mmHg 28%
    12:00 +34°C° 0 mm 6 m/s 718 mmHg 23%
    13:00 +35°C° 0 mm 6 m/s 717 mmHg 22%
    14:00 +36°C° 0 mm 6 m/s 717 mmHg 20%
    15:00 +37°C° 0 mm 5 m/s 716 mmHg 18%
    16:00 +36°C° 0 mm 6 m/s 716 mmHg 18%
    17:00 +36°C° 0 mm 6 m/s 717 mmHg 17%
    18:00 +36°C° 0 mm 7 m/s 717 mmHg 16%
    19:00 +34°C° 0 mm 7 m/s 717 mmHg 16%
    20:00 +33°C° 0 mm 8 m/s 718 mmHg 17%
    21:00 +32°C° 0 mm 8 m/s 718 mmHg 17%
    22:00 +31°C° 0 mm 8 m/s 718 mmHg 18%
    23:00 +29°C° 0 mm 9 m/s 718 mmHg 19%

    22 Décembre, Samedi

    Heure Température Précipitation Vent Pression Humidité
    00:00 +28°C° 0 mm 9 m/s 718 mmHg 20%
    01:00 +27°C° 0 mm 8 m/s 718 mmHg 21%
    02:00 +26°C° 0 mm 8 m/s 718 mmHg 23%
    03:00 +26°C° 0 mm 8 m/s 717 mmHg 24%
    04:00 +24°C° 0 mm 8 m/s 718 mmHg 26%
    05:00 +23°C° 0 mm 8 m/s 718 mmHg 28%
    06:00 +22°C° 0 mm 9 m/s 719 mmHg 30%
    07:00 +24°C° 0 mm 9 m/s 719 mmHg 28%
    08:00 +26°C° 0 mm 9 m/s 720 mmHg 26%
    09:00 +28°C° 0 mm 9 m/s 720 mmHg 24%
    10:00 +29°C° 0 mm 8 m/s 720 mmHg 21%
    11:00 +32°C° 0 mm 8 m/s 720 mmHg 18%
    12:00 +34°C° 0 mm 8 m/s 719 mmHg 15%
    13:00 +35°C° 0 mm 7 m/s 719 mmHg 14%
    14:00 +36°C° 0 mm 7 m/s 718 mmHg 12%
    15:00 +38°C° 0 mm 7 m/s 717 mmHg 11%
    16:00 +36°C° 0 mm 7 m/s 717 mmHg 11%
    17:00 +36°C° 0 mm 7 m/s 718 mmHg 11%
    18:00 +35°C° 0 mm 7 m/s 718 mmHg 11%
    19:00 +34°C° 0 mm 7 m/s 718 mmHg 12%
    20:00 +32°C° 0 mm 6 m/s 719 mmHg 13%
    21:00 +30°C° 0 mm 6 m/s 719 mmHg 14%
    22:00 +29°C° 0 mm 6 m/s 719 mmHg 15%
    23:00 +28°C° 0 mm 6 m/s 719 mmHg 16%

    23 Décembre, Dimanche

    Heure Température Précipitation Vent Pression Humidité
    00:00 +27°C° 0 mm 6 m/s 719 mmHg 17%
    01:00 +26°C° 0 mm 6 m/s 719 mmHg 18%
    02:00 +26°C° 0 mm 6 m/s 719 mmHg 18%
    03:00 +24°C° 0 mm 6 m/s 718 mmHg 19%
    04:00 +23°C° 0 mm 6 m/s 719 mmHg 19%
    05:00 +23°C° 0 mm 6 m/s 719 mmHg 20%
    06:00 +23°C° 0 mm 6 m/s 719 mmHg 20%
    07:00 +26°C° 0 mm 7 m/s 720 mmHg 18%
    08:00 +28°C° 0 mm 7 m/s 720 mmHg 16%
    09:00 +31°C° 0 mm 8 m/s 720 mmHg 14%
    10:00 +32°C° 0 mm 8 m/s 720 mmHg 13%
    11:00 +34°C° 0 mm 7 m/s 719 mmHg 11%
    12:00 +35°C° 0 mm 7 m/s 719 mmHg 9%
    13:00 +36°C° 0 mm 6 m/s 718 mmHg 8%
    14:00 +38°C° 0 mm 6 m/s 717 mmHg 8%
    15:00 +39°C° 0 mm 6 m/s 717 mmHg 7%
    16:00 +38°C° 0 mm 6 m/s 717 mmHg 7%
    17:00 +38°C° 0 mm 6 m/s 717 mmHg 7%
    18:00 +38°C° 0 mm 6 m/s 717 mmHg 7%
    19:00 +35°C° 0 mm 5 m/s 717 mmHg 8%
    20:00 +34°C° 0 mm 5 m/s 718 mmHg 9%
    21:00 +32°C° 0 mm 5 m/s 718 mmHg 10%
    22:00 +30°C° 0 mm 5 m/s 718 mmHg 11%
    23:00 +29°C° 0 mm 5 m/s 718 mmHg 12%
    Voir plus